Spokane Fairchild, WA
on Sunday, December 9, 2012

Sunday
Previous Day Next Day
Daily Summary
 ActualAverage (KGEG)Record (KGEG)
Temperature
Mean Temperature °F 28°F  
Max Temperature 29°F 33°F 54°F (1957)
Min Temperature 17°F 23°F -8°F (1919)
Degree Days
Heating Degree Days 42 37  
Month to date heating degree days 326  
Since 1 July heating degree days 1993  
Cooling Degree Days 0 0  
Month to date cooling degree days 0  
Year to date cooling degree days 450  
Moisture
Dew Point 26°F   
Average Humidity 100    
Maximum Humidity 100    
Minimum Humidity 93    
Precipitation
Precipitation 0.00 in 0.07 in 1.39 in (1987)
Month to date precipitation 0.74  
Year to date precipitation 15.00  
Snow
Snow 0.00 in 0.50 in 8.50 in (1948)
Month to date snowfall 3.8  
Since 1 July snowfall 11.3  
Snow Depth in   
Wind
Wind Speed 4 mph   
Max Wind Speed 10 mph   
Max Gust Speed mph   
Visibility 9 miles   
Events Snow   

Key: T is trace of precipitation, MM is missing value
Source: NWS Daily Summary
Time(PST)TemperatureDew PointHumidity Pressure Visibility Wind DirectionWind SpeedGust SpeedPrecipitationEvents Conditions
12:58 AM 19.4°F 19.4°F 100% 30.36 in 10.0 miles West 2.3 mph - N/A   Clear
1:57 AM 19.4°F 19.4°F 100% 30.28 in 10.0 miles WNW 5.8 mph - N/A Snow Light Snow
1:58 AM 19.0°F 19.0°F 100% 30.38 in 10.0 miles WNW 5.8 mph - N/A Snow Light Snow
2:07 AM 19.4°F 19.4°F 100% 30.29 in 10.0 miles WNW 4.6 mph - N/A   Clear
2:25 AM 19.4°F 19.4°F 100% 30.28 in 10.0 miles West 2.3 mph - N/A Snow Light Snow
2:37 AM 17.6°F 17.6°F 100% 30.28 in 10.0 miles WSW 4.6 mph - N/A   Clear
2:58 AM 17.6°F 17.6°F 100% 30.38 in 10.0 miles SW 2.3 mph - 0.00 in   Partly Cloudy
3:58 AM 21.4°F 19.8°F 93% 30.40 in 10.0 miles Variable 1.2 mph - N/A   Scattered Clouds
4:10 AM 21.2°F 19.4°F 93% 30.30 in 10.0 miles NW 1.2 mph - N/A Snow Light Snow
4:21 AM 21.2°F 19.4°F 93% 30.30 in 10.0 miles Calm Calm - N/A   Overcast
4:28 AM 21.2°F 21.2°F 100% 30.30 in 10.0 miles Calm Calm - N/A Snow Light Snow
4:46 AM 19.4°F 19.4°F 100% 30.30 in 10.0 miles Calm Calm - N/A   Overcast
4:58 AM 20.8°F 20.5°F 99% 30.41 in 10.0 miles Calm Calm - 0.00 in   Overcast
5:55 AM 21.2°F 21.2°F 100% 30.32 in 10.0 miles East 1.2 mph - N/A Snow Light Snow
5:58 AM 21.2°F 21.2°F 100% 30.43 in 10.0 miles East 1.2 mph - N/A Snow Light Snow
6:07 AM 21.2°F 21.2°F 100% 30.32 in 10.0 miles NE 2.3 mph - N/A   Mostly Cloudy
6:58 AM 20.7°F 20.7°F 100% 30.44 in 10.0 miles NE 3.5 mph - 0.00 in   Partly Cloudy
7:58 AM 20.8°F 20.8°F 100% 30.45 in 10.0 miles Calm Calm - N/A   Clear
8:27 AM 23.0°F 23.0°F 100% 30.33 in 10.0 miles SE 2.3 mph - N/A   Clear
8:42 AM 23.0°F 23.0°F 100% 30.32 in 10.0 miles SE 3.5 mph - N/A   Mostly Cloudy
8:55 AM 23.0°F 23.0°F 100% 30.31 in 10.0 miles ESE 4.6 mph - N/A   Mostly Cloudy
8:58 AM 23.0°F 23.0°F 100% 30.42 in 10.0 miles ESE 5.8 mph - 0.00 in   Mostly Cloudy
9:03 AM 23.0°F 23.0°F 100% 30.31 in 10.0 miles SE 5.8 mph - N/A   Overcast
9:15 AM 24.8°F 24.8°F 100% 30.32 in 10.0 miles SSE 6.9 mph - N/A   Overcast
9:20 AM 24.8°F 24.8°F 100% 30.32 in 10.0 miles SSE 5.8 mph - N/A   Overcast
9:50 AM 24.8°F 24.8°F 100% 30.33 in 10.0 miles SE 4.6 mph - N/A   Overcast
9:58 AM 25.3°F 25.3°F 100% 30.44 in 10.0 miles SSE 2.3 mph - 0.00 in   Overcast
10:28 AM 26.6°F 26.6°F 100% 30.33 in 10.0 miles SE 5.8 mph - N/A   Overcast
10:49 AM 26.6°F 26.6°F 100% 30.33 in 10.0 miles SE 5.8 mph - N/A   Overcast
10:58 AM 26.6°F 26.6°F 100% 30.43 in 10.0 miles ESE 6.9 mph - 0.00 in   Overcast
11:16 AM 26.6°F 26.6°F 100% 30.32 in 10.0 miles SSE 6.9 mph - N/A   Overcast
11:26 AM 26.6°F 26.6°F 100% 30.30 in 10.0 miles SSE 6.9 mph - N/A   Overcast
11:34 AM 26.6°F 26.6°F 100% 30.29 in 10.0 miles SSE 8.1 mph - N/A   Overcast
11:58 AM 27.5°F 27.5°F 100% 30.40 in 6.0 miles SSE 4.6 mph - 0.00 in Snow Light Snow
12:58 PM 28.6°F 28.6°F 100% 30.38 in 10.0 miles SSW 5.8 mph - 0.00 in Snow Light Snow
1:01 PM 28.4°F 28.4°F 100% 30.28 in 10.0 miles SSW 6.9 mph - N/A   Overcast
1:06 PM 28.4°F 28.4°F 100% 30.27 in 10.0 miles SSW 5.8 mph - N/A   Overcast
1:16 PM 28.4°F 28.4°F 100% 30.27 in 10.0 miles South 5.8 mph - N/A   Overcast
1:19 PM 28.4°F 28.4°F 100% 30.26 in 10.0 miles South 5.8 mph - N/A   Overcast
1:24 PM 28.4°F 28.4°F 100% 30.26 in 10.0 miles SSW 5.8 mph - N/A   Overcast
1:27 PM 28.4°F 28.4°F 100% 30.26 in 10.0 miles South 4.6 mph - N/A   Overcast
1:42 PM 28.4°F 28.4°F 100% 30.26 in 7.0 miles SW 9.2 mph - N/A Snow Light Snow
1:52 PM 28.4°F 28.4°F 100% 30.25 in 9.0 miles SSW 10.4 mph - N/A   Overcast
1:58 PM 29.1°F 29.1°F 100% 30.35 in 10.0 miles SSW 9.2 mph - 0.00 in   Overcast
2:18 PM 28.4°F 28.4°F 100% 30.24 in 10.0 miles SSW 10.4 mph - N/A   Overcast
2:23 PM 28.4°F 28.4°F 100% 30.25 in 10.0 miles SSW 10.4 mph - N/A Snow Light Snow
2:28 PM 28.4°F 28.4°F 100% 30.25 in 10.0 miles SSW 8.1 mph - N/A Snow Light Snow
2:34 PM 28.4°F 28.4°F 100% 30.25 in 10.0 miles SSW 5.8 mph - N/A   Overcast
2:39 PM 28.4°F 28.4°F 100% 30.25 in 10.0 miles SSW 9.2 mph - N/A   Overcast
2:58 PM 28.9°F 28.9°F 100% 30.36 in 10.0 miles SSW 8.1 mph - 0.00 in   Overcast
3:28 PM 28.4°F 28.4°F 100% 30.23 in 10.0 miles SSW 10.4 mph - N/A   Overcast
3:58 PM 28.9°F 28.9°F 100% 30.32 in 10.0 miles South 10.4 mph - N/A   Overcast
4:38 PM 28.4°F 28.4°F 100% 30.20 in 10.0 miles South 9.2 mph - N/A   Overcast
4:58 PM 28.9°F 28.9°F 100% 30.30 in 10.0 miles South 6.9 mph - N/A   Overcast
5:34 PM 28.4°F 28.4°F 100% 30.20 in 10.0 miles South 8.1 mph - N/A   Overcast
5:44 PM 28.4°F 28.4°F 100% 30.20 in 6.0 miles South 9.2 mph - N/A Snow Light Snow
5:58 PM 28.9°F 28.9°F 100% 30.29 in 4.0 miles South 5.8 mph - 0.00 in Snow Light Snow
6:03 PM 28.4°F 28.4°F 100% 30.19 in 6.0 miles South 5.8 mph - N/A Snow Light Snow
6:13 PM 28.4°F 28.4°F 100% 30.19 in 4.0 miles SSE 5.8 mph - N/A Snow Light Snow
6:23 PM 28.4°F 28.4°F 100% 30.19 in 4.0 miles South 5.8 mph - N/A Snow Light Snow
6:58 PM 28.6°F 28.6°F 100% 30.28 in 5.0 miles SSE 5.8 mph - 0.00 in Snow Light Snow
7:01 PM 28.4°F 28.4°F 100% 30.18 in 5.0 miles SSE 5.8 mph - N/A   Overcast
7:06 PM 28.4°F 28.4°F 100% 30.18 in 6.0 miles SSE 4.6 mph - N/A   Overcast
7:16 PM 28.4°F 28.4°F 100% 30.17 in 10.0 miles SSE 4.6 mph - N/A   Overcast
7:51 PM 28.4°F 28.4°F 100% 30.15 in 10.0 miles SSE 4.6 mph - N/A   Overcast
7:58 PM 28.6°F 28.6°F 100% 30.26 in 10.0 miles ESE 3.5 mph - 0.00 in   Overcast
8:03 PM 28.4°F 28.4°F 100% 30.15 in 10.0 miles SE 4.6 mph - N/A   Overcast
8:53 PM 28.4°F 28.4°F 100% 30.14 in 10.0 miles South 6.9 mph - N/A   Overcast
8:58 PM 28.4°F 28.4°F 100% 30.24 in 10.0 miles SSE 5.8 mph - 0.00 in   Overcast
9:05 PM 28.4°F 28.4°F 100% 30.14 in 10.0 miles SSE 4.6 mph - N/A   Overcast
9:48 PM 28.4°F 28.4°F 100% 30.17 in 10.0 miles East 4.6 mph - N/A   Overcast
9:53 PM 28.4°F 28.4°F 100% 30.16 in 8.0 miles East 3.5 mph - N/A   Freezing Rain
9:58 PM 28.6°F 28.6°F 100% 30.26 in 5.0 miles East 3.5 mph - 0.00 in   Freezing Rain
10:01 PM 28.4°F 28.4°F 100% 30.17 in 4.0 miles East 3.5 mph - N/A   Overcast
10:06 PM 28.4°F 28.4°F 100% 30.16 in 4.0 miles East 3.5 mph - N/A   Light Freezing Drizzle
10:21 PM 28.4°F 28.4°F 100% 30.15 in 3.0 miles East 3.5 mph - N/A   Light Freezing Drizzle
10:58 PM 28.8°F 28.8°F 100% 30.24 in 3.0 miles East 2.3 mph - 0.00 in   Light Freezing Drizzle
11:37 PM 28.4°F 28.4°F 100% 30.15 in 3.0 miles ESE 2.3 mph - N/A   Overcast
11:42 PM 28.4°F 28.4°F 100% 30.15 in 3.0 miles SE 3.5 mph - N/A   Overcast
11:52 PM 28.4°F 28.4°F 100% 30.15 in 3.0 miles SE 2.3 mph - N/A   Overcast
11:57 PM 28.4°F 28.4°F 100% 30.14 in 3.0 miles SSE 2.3 mph - N/A   Overcast
11:58 PM 28.9°F 28.9°F 100% 30.23 in 3.0 miles SSE 2.3 mph - 0.00 in   Overcast
Moon Phase
Dec. 09 Dec. 13 Dec. 20 Dec. 28 Jan. 04
Sunrise:07:27 AM (PST) Moon Rise:02:52 AM (PST)12/9
Sunset:03:58 PM (PST) Moon Set:01:20 PM (PST)12/9

Copyright © 2014 The Weather Underground, Inc.